492P/LINEAR (2024)

Japanese version
Home page
Updated on March 24, 2025

---------------------------------------------------------------------

* Profile

Designation 492P/2024 O3
Recovery Date July 18, 2024
Magnitude 19.9 mag
Recoverer Zwicky Transient Facility (ZTF) Collaboration

* Pictures

* Orbital Elements

Epoch 2025 May 5.0 TT = JDT 2460800.5
T 2024 July 20.45982 TT                                 Pike
q   1.7819971            (2000.0)            P               Q
n   0.07128412     Peri.   40.98646     +0.61416758     -0.78822354
a   5.7606855      Node    11.30606     +0.66264544     +0.48840502
e   0.6906623      Incl.   11.40083     +0.42860145     +0.37438508
P  13.8
From 798 observations 2010 Aug. 10-2025 Feb. 25, mean residual 0".7.

* Magnitudes Graph

        m1 = 13.0 + 5 log d + 12.0 log r(t - 100)

---------------------------------------------------------------------

The orbital elements are published on M.P.E.C. 2025-D254.
The magnitudes graphs are made with Comet for Windows.

---------------------------------------------------------------------

Copyright(C) Seiichi Yoshida (comet@aerith.net). All rights reserved.